Погода в Устюге

Россия / Красноярский край     56°22′18″N   92°50′26″E
темп.,
°C
ветер,
м/с
пор.,
м/с
влажн.,
%
обл.,
%
осадки,
мм/ч
давл.,
гПа
погр.,
м
19 мая, ср
ср1901:00+4зсз239292 0.0 100753
04:00+4зсз2287100 0.0 100720
07:00+6сз246669 0.0 1006167
10:00+10ссз234337 0.0 1005956
13:00+13с343287 0.0 10042161
16:00+13ссз543390 0.0 10032326
19:00+11сз4642100 0.0 1004613
22:00+6сз5114897 0.0 1006407
20 мая, чт
чт2001:00+4сз4956100 0.0 1007328
04:00+1зсз357169 0.0 1007147
07:00+3сз357088 0.0 1009416
10:00+7ссз4546100 0.1 10081859
13:00+8с3441100 0.2 10092049
16:00+9ссз444092 0.1 10091980
19:00+8сз454543 0.2 10111777
22:00+4зсз3768100 0.0 1013160
21 мая, пт
пт2101:00+2зсз2484100 0.0 101584
04:00+1зсз3694100 0.0 1016171
07:00+4зсз2592100 0.3 1018365
10:00+8ссз3462100 0.0 10191126
13:00+12с344096 0.1 10182170
16:00+14ссз462898 0.0 10182725
19:00+12ссз474078 0.0 10201525
22:00+6зсз346217 0.0 102358
22 мая, сб
сб2201:00+4з24726 0.0 102459
04:00+3з35746 0.0 102592
07:00+7з376294 0.0 1025292
10:00+11з5641100 0.0 10252218
13:00+13з5636100 0.0 10242433
16:00+12з574897 0.0 10241674
19:00+11зсз4755100 0.0 10241414
22:00+8зюз3668100 0.0 1025197
23 мая, вс
вс2301:00+8зюз31070100 0.0 1024691
04:00+7зюз41081100 0.5 1024647
07:00+8зюз51176100 0.7 1023581
10:00+11з6966100 0.0 1023649
13:00+14зюз51068100 0.3 1021789
16:00+14зюз51072100 0.1 1021832
19:00+16зюз6116832 0.3 1020904
22:00+14зюз61573100 0.0 1019576